Weather History for Faith, SD

Change the Weather History Date:

Monday, December 2, 2013

  Actual Average Record
Temperature  
Mean Temperature 36 °F 24 °F  
Max Temperature 51 °F 34 °F 60 °F (2012)
Min Temperature 21 °F 14 °F -2 °F (2006)
Degree Days  
Heating Degree Days 29 41  
Month to date heating degree days 53 82  
Since 1 July heating degree days 1803 1865  
Cooling Degree Days 0 0  
Month to date cooling degree days 0 0  
Year to date cooling degree days 720 635  
Moisture  
Dew Point 29 °F    
Average Humidity 73    
Maximum Humidity 100    
Minimum Humidity 46    
Precipitation  
Precipitation 0.01 in 0.01 in 0.08 in (2005)
Month to date precipitation 0.01 0.02  
Year to date precipitation 16.34 17.28  
Sea Level Pressure  
Sea Level Pressure 29.60 in    
Wind  
Wind Speed 14 mph (NW)    
Max Wind Speed 24 mph    
Max Gust Speed 29 mph    
T = Trace of Precipitation, MM = Missing Value Source: NWS Daily Summary

Daily Weather History Graph

Daily Weather History Graph

Search for Another Location

Airport:

Trip Planner

Search our weather history database for the weather conditions in past years. The results will help you decide how hot, cold, wet, or windy it might be!

Date:

Astronomy

Dec. 02, 2013 Rise Set
Actual Time 7:07 AM MST 4:07 PM MST
Civil Twilight 6:34 AM MST 4:40 PM MST
Nautical Twilight 5:57 AM MST 5:17 PM MST
Astronomical Twilight 5:22 AM MST 5:52 PM MST
Moon 6:33 AM MST (12/2) 4:13 PM MST (12/2)
Length of Visible Light 10h 06m
Length of Day
8h 59m
Waning Crescent, 0% of the Moon is Illuminated
Dec 2
Waning Crescent
Dec 2
New
Dec 9
First Quarter
Dec 17
Full
Dec 25
Last Quarter

Hourly Weather History & Observations

Time (MST) Temp. Windchill Dew Point Humidity Pressure Visibility Wind Dir Wind Speed Gust Speed Precip Events Conditions
12:56 AM 39.0 °F 34.0 °F 28.9 °F 67% 29.64 in - WSW 6.9 mph - N/A   Unknown
1:56 AM 37.9 °F 34.4 °F 28.0 °F 68% 29.61 in - SW 4.6 mph - N/A   Unknown
2:56 AM 39.0 °F 36.8 °F 28.9 °F 67% 29.60 in - SW 3.5 mph - N/A   Unknown
3:56 AM 37.9 °F 31.5 °F 28.9 °F 70% 29.59 in - WSW 9.2 mph - N/A   Unknown
4:56 AM 34.0 °F 26.6 °F 27.0 °F 75% 29.58 in - SW 9.2 mph - N/A   Unknown
5:56 AM 36.0 °F 27.5 °F 28.0 °F 73% 29.58 in - West 12.7 mph - N/A   Unknown
6:56 AM 37.9 °F 30.5 °F 28.9 °F 70% 29.58 in - West 11.5 mph - N/A   Unknown
7:56 AM 41.0 °F 34.3 °F 30.9 °F 67% 29.59 in - West 11.5 mph - N/A   Unknown
8:56 AM 42.1 °F 36.1 °F 30.9 °F 65% 29.56 in - West 10.4 mph - N/A   Unknown
9:56 AM 50.0 °F - 30.9 °F 48% 29.55 in - West 16.1 mph - N/A   Unknown
10:56 AM 51.1 °F - 32.0 °F 48% 29.55 in - WNW 18.4 mph 26.5 mph N/A   Unknown
11:56 AM 48.0 °F - 33.1 °F 56% 29.55 in - WNW 16.1 mph - N/A   Unknown
12:56 PM 46.9 °F - 32.0 °F 56% 29.52 in - WNW 12.7 mph - N/A   Unknown
1:56 PM 48.0 °F - 32.0 °F 54% 29.52 in - NW 11.5 mph - N/A   Unknown
2:56 PM 46.9 °F - 33.1 °F 59% 29.54 in - North 17.3 mph - N/A   Unknown
3:56 PM 39.9 °F 33.9 °F 34.0 °F 79% 29.58 in - NE 9.2 mph - N/A   Unknown
4:56 PM 36.0 °F 28.0 °F 32.0 °F 86% 29.61 in - NNE 11.5 mph - N/A   Unknown
5:56 PM 34.0 °F 23.4 °F 32.0 °F 92% 29.63 in - NE 17.3 mph - N/A   Unknown
6:56 PM 28.9 °F 18.2 °F 28.0 °F 96% 29.65 in - NE 13.8 mph - N/A   Unknown
7:56 PM 27.0 °F 14.3 °F 26.1 °F 96% 29.66 in - NE 17.3 mph - N/A   Unknown
8:56 PM 26.1 °F 11.6 °F 25.0 °F 96% 29.65 in - NE 21.9 mph 26.5 mph N/A   Unknown
9:56 PM 24.1 °F 10.1 °F 23.0 °F 96% 29.69 in - NNE 18.4 mph - N/A   Unknown
10:56 PM 21.9 °F 6.9 °F 21.0 °F 96% 29.69 in - NE 19.6 mph - N/A   Unknown
11:56 PM 21.0 °F 4.6 °F 19.0 °F 92% 29.68 in - NE 23.0 mph 28.8 mph 0.01 in   Unknown